timestamp,wind_dir_avg,wind_spd_avg,wind_spd_max_dir,wind_spd_gust,battery_voltage,lat,long
2023-12-31 00:04:00+00:00,339.0,2.75,337.0,3.14,12.33,47.59359,-54.27349
2023-12-31 00:14:00+00:00,15.0,3.14,12.0,3.8,12.33,47.59359,-54.27349
2023-12-31 00:24:00+00:00,14.0,3.41,17.0,3.87,12.33,47.59359,-54.27349
2023-12-31 00:34:00+00:00,353.0,2.65,337.0,3.01,12.33,47.59359,-54.27349
2023-12-31 00:44:00+00:00,9.0,2.43,29.0,3.08,12.33,47.59359,-54.27349
2023-12-31 00:54:00+00:00,11.0,3.75,15.0,4.33,12.33,47.59359,-54.27349
2023-12-31 01:04:00+00:00,7.0,4.07,347.0,4.99,12.33,47.59359,-54.27349
2023-12-31 01:14:00+00:00,358.0,3.32,20.0,4.01,12.33,47.59359,-54.27349
2023-12-31 01:24:00+00:00,353.0,3.23,348.0,3.86,12.33,47.59359,-54.27349
2023-12-31 01:34:00+00:00,356.0,2.41,358.0,2.99,12.33,47.59359,-54.27349
2023-12-31 01:44:00+00:00,19.0,2.42,27.0,2.98,12.33,47.59359,-54.27349
2023-12-31 01:54:00+00:00,32.0,1.98,29.0,2.42,12.33,47.59359,-54.27349
2023-12-31 02:04:00+00:00,47.0,4.43,48.0,5.1,12.33,47.59359,-54.27349
2023-12-31 02:14:00+00:00,35.0,5.73,37.0,6.19,12.33,47.59359,-54.27349
2023-12-31 02:24:00+00:00,15.0,4.01,16.0,4.82,12.33,47.59359,-54.27349
2023-12-31 02:34:00+00:00,18.0,6.38,25.0,7.07,12.33,47.59359,-54.27349
2023-12-31 02:44:00+00:00,29.0,6.47,33.0,7.12,12.33,47.59359,-54.27349
2023-12-31 02:54:00+00:00,11.0,5.18,28.0,6.55,12.33,47.59359,-54.27349
2023-12-31 03:04:00+00:00,11.0,4.2,337.0,5.31,12.33,47.59359,-54.27349
2023-12-31 03:14:01+00:00,31.0,4.23,38.0,5.22,12.25,47.59359,-54.27349
2023-12-31 03:24:01+00:00,46.0,4.54,46.0,5.15,12.25,47.59359,-54.27349
2023-12-31 03:34:01+00:00,41.0,5.86,43.0,6.38,12.25,47.59359,-54.27349
2023-12-31 03:44:01+00:00,41.0,6.08,51.0,7.61,12.25,47.59359,-54.27349
2023-12-31 03:54:01+00:00,47.0,5.8,44.0,6.65,12.25,47.59359,-54.27349
2023-12-31 04:04:01+00:00,43.0,5.85,44.0,6.3,12.25,47.59359,-54.27349
2023-12-31 04:14:00+00:00,48.0,5.47,46.0,6.18,12.25,47.59359,-54.27349
2023-12-31 04:24:00+00:00,66.0,5.3,65.0,5.76,12.25,47.59359,-54.27349
2023-12-31 04:34:00+00:00,58.0,6.15,59.0,7.1,12.25,47.59359,-54.27349
2023-12-31 04:44:00+00:00,57.0,5.58,50.0,6.44,12.25,47.59359,-54.27349
2023-12-31 04:54:00+00:00,68.0,5.4,65.0,6.13,12.25,47.59359,-54.27349
2023-12-31 05:04:00+00:00,59.0,7.54,61.0,8.89,12.25,47.59359,-54.27349
2023-12-31 05:14:00+00:00,56.0,7.74,56.0,8.82,12.25,47.59359,-54.27349
2023-12-31 05:24:00+00:00,56.0,7.87,56.0,8.71,12.25,47.59359,-54.27349
2023-12-31 05:34:00+00:00,60.0,6.8,55.0,7.83,12.25,47.59359,-54.27349
2023-12-31 05:44:00+00:00,57.0,8.08,59.0,9.07,12.25,47.59359,-54.27349
2023-12-31 05:54:00+00:00,54.0,7.96,53.0,8.8,12.25,47.59359,-54.27349
2023-12-31 06:04:00+00:00,58.0,6.74,67.0,8.48,12.25,47.59359,-54.27349
2023-12-31 06:14:00+00:00,57.0,6.15,62.0,8.58,12.25,47.59359,-54.27349
2023-12-31 06:24:00+00:00,60.0,6.44,59.0,7.34,12.25,47.59359,-54.27349
2023-12-31 06:34:00+00:00,64.0,5.2,60.0,5.72,12.25,47.59359,-54.27349
2023-12-31 06:44:00+00:00,52.0,5.4,47.0,6.47,12.25,47.59359,-54.27349
2023-12-31 06:54:00+00:00,49.0,6.29,43.0,7.22,12.25,47.59359,-54.27349
2023-12-31 07:04:00+00:00,46.0,5.43,42.0,6.03,12.25,47.59359,-54.27349
2023-12-31 07:14:00+00:00,33.0,5.18,33.0,5.94,12.17,47.59359,-54.27349
2023-12-31 07:24:00+00:00,16.0,5.15,30.0,6.13,12.17,47.59359,-54.27349
2023-12-31 07:34:00+00:00,30.0,6.79,30.0,7.25,12.17,47.59359,-54.27349
2023-12-31 07:44:00+00:00,18.0,7.54,23.0,8.28,12.17,47.59359,-54.27349
2023-12-31 07:54:00+00:00,2.0,6.88,7.0,7.53,12.17,47.59359,-54.27349
2023-12-31 08:04:00+00:00,1.0,7.35,3.0,7.73,12.17,47.59359,-54.27349
2023-12-31 08:14:00+00:00,349.0,6.31,5.0,7.26,12.17,47.59359,-54.27349
2023-12-31 08:24:00+00:00,351.0,5.88,342.0,7.07,12.17,47.59359,-54.27349
2023-12-31 08:34:00+00:00,358.0,5.93,3.0,7.03,12.17,47.59359,-54.27349
2023-12-31 08:44:00+00:00,2.0,6.64,6.0,7.76,12.17,47.59359,-54.27349
2023-12-31 08:54:00+00:00,350.0,5.54,348.0,6.11,12.17,47.59359,-54.27349
2023-12-31 09:04:00+00:00,313.0,2.87,325.0,4.43,12.17,47.59359,-54.27349
2023-12-31 09:14:00+00:00,329.0,4.73,340.0,8.38,12.17,47.59359,-54.27349
2023-12-31 09:24:00+00:00,315.0,0.01,350.0,0.0,12.17,47.59359,-54.27349
2023-12-31 09:34:00+00:00,315.0,0.01,350.0,0.0,12.17,47.59359,-54.27349
2023-12-31 09:44:00+00:00,315.0,0.01,350.0,0.0,12.17,47.59359,-54.27349
2023-12-31 09:54:00+00:00,346.0,14.31,346.0,16.75,12.17,47.59359,-54.27349
2023-12-31 10:04:00+00:00,326.0,6.81,330.0,8.01,12.17,47.59359,-54.27349
2023-12-31 10:14:00+00:00,323.0,6.52,322.0,7.29,12.09,47.59359,-54.27349
2023-12-31 10:24:00+00:00,312.0,8.29,305.0,10.36,12.09,47.59359,-54.27349
2023-12-31 10:34:00+00:00,320.0,7.26,325.0,8.54,12.09,47.59359,-54.27349
2023-12-31 10:44:00+00:00,318.0,6.81,319.0,7.53,12.09,47.59359,-54.27349
2023-12-31 10:54:00+00:00,312.0,6.66,302.0,8.65,12.09,47.59359,-54.27349
2023-12-31 11:04:00+00:00,319.0,6.99,316.0,9.45,12.09,47.59359,-54.27349
2023-12-31 11:14:00+00:00,311.0,10.75,316.0,12.42,12.09,47.59359,-54.27349
2023-12-31 11:24:00+00:00,310.0,10.02,313.0,11.72,12.09,47.59359,-54.27349
2023-12-31 11:34:00+00:00,306.0,8.61,309.0,10.41,12.09,47.59359,-54.27349
2023-12-31 11:44:00+00:00,313.0,8.79,315.0,11.65,12.09,47.59359,-54.27349
2023-12-31 11:54:00+00:00,305.0,9.81,302.0,11.88,12.09,47.59359,-54.27349
2023-12-31 12:04:00+00:00,306.0,10.16,309.0,12.56,12.09,47.59359,-54.27349
2023-12-31 12:14:00+00:00,308.0,10.25,308.0,11.91,12.17,47.59359,-54.27349
2023-12-31 12:24:00+00:00,309.0,10.24,316.0,12.95,12.17,47.59359,-54.27349
2023-12-31 12:34:00+00:00,314.0,10.76,313.0,13.13,12.17,47.59359,-54.27349
2023-12-31 12:44:00+00:00,305.0,9.63,311.0,11.88,12.17,47.59359,-54.27349
2023-12-31 12:54:00+00:00,306.0,9.85,305.0,11.88,12.17,47.59359,-54.27349
2023-12-31 13:04:00+00:00,309.0,10.59,316.0,11.75,12.17,47.59359,-54.27349
2023-12-31 13:14:00+00:00,308.0,10.19,304.0,12.04,12.73,47.59359,-54.27349
2023-12-31 13:24:00+00:00,307.0,9.76,302.0,11.82,12.73,47.59359,-54.27349
2023-12-31 13:34:00+00:00,307.0,10.58,313.0,12.62,12.73,47.59359,-54.27349
2023-12-31 13:44:00+00:00,302.0,9.42,300.0,11.27,12.73,47.59359,-54.27349
2023-12-31 13:54:00+00:00,308.0,10.01,303.0,12.36,12.73,47.59359,-54.27349
2023-12-31 14:04:00+00:00,308.0,10.3,308.0,11.83,12.73,47.59359,-54.27349
2023-12-31 14:14:00+00:00,309.0,10.25,310.0,12.03,13.21,47.59359,-54.27349
2023-12-31 14:24:00+00:00,308.0,12.48,312.0,15.59,13.21,47.59359,-54.27349
2023-12-31 14:34:00+00:00,317.0,12.64,320.0,14.23,13.21,47.59359,-54.27349
2023-12-31 14:44:00+00:00,312.0,12.19,308.0,14.25,13.21,47.59359,-54.27349
2023-12-31 14:54:00+00:00,315.0,12.16,315.0,14.16,13.21,47.59359,-54.27349
2023-12-31 15:04:00+00:00,312.0,11.8,315.0,14.27,13.21,47.59359,-54.27349
2023-12-31 15:14:00+00:00,308.0,10.71,306.0,12.77,13.68,47.59359,-54.27349
2023-12-31 15:24:00+00:00,307.0,10.62,315.0,13.03,13.68,47.59359,-54.27349
2023-12-31 15:34:00+00:00,311.0,9.37,312.0,12.67,13.68,47.59359,-54.27349
2023-12-31 15:44:00+00:00,311.0,9.75,310.0,12.34,13.68,47.59359,-54.27349
2023-12-31 15:54:00+00:00,322.0,7.64,306.0,11.18,13.68,47.59359,-54.27349
2023-12-31 16:04:00+00:00,319.0,10.59,316.0,12.75,13.68,47.59359,-54.27349
2023-12-31 16:14:00+00:00,309.0,10.72,304.0,12.2,13.76,47.59359,-54.27349
2023-12-31 16:24:00+00:00,307.0,8.03,304.0,11.51,13.76,47.59359,-54.27349
2023-12-31 16:34:00+00:00,316.0,7.95,312.0,11.93,13.76,47.59359,-54.27349
2023-12-31 16:44:00+00:00,303.0,6.55,293.0,10.46,13.76,47.59359,-54.27349
2023-12-31 16:54:00+00:00,304.0,7.94,310.0,12.21,13.76,47.59359,-54.27349
2023-12-31 17:04:00+00:00,308.0,6.61,303.0,10.56,13.76,47.59359,-54.27349
2023-12-31 17:14:00+00:00,302.0,9.13,300.0,10.97,13.53,47.59359,-54.27349
2023-12-31 17:24:00+00:00,304.0,9.17,303.0,10.67,13.53,47.59359,-54.27349
2023-12-31 17:34:00+00:00,302.0,9.44,302.0,10.69,13.53,47.59359,-54.27349
2023-12-31 17:44:00+00:00,304.0,11.39,303.0,14.58,13.53,47.59359,-54.27349
2023-12-31 17:54:00+00:00,303.0,10.27,295.0,19.09,13.53,47.59359,-54.27349
2023-12-31 18:04:00+00:00,305.0,10.63,301.0,12.98,13.53,47.59359,-54.27349
2023-12-31 18:14:00+00:00,303.0,9.81,307.0,11.32,13.53,47.59359,-54.27349
2023-12-31 18:24:00+00:00,303.0,9.8,307.0,11.67,13.53,47.59359,-54.27349
2023-12-31 18:34:00+00:00,307.0,10.75,300.0,12.91,13.53,47.59359,-54.27349
2023-12-31 18:44:00+00:00,303.0,11.07,304.0,12.71,13.53,47.59359,-54.27349
2023-12-31 18:54:00+00:00,297.0,10.1,295.0,11.83,13.53,47.59359,-54.27349
2023-12-31 19:04:00+00:00,295.0,10.0,296.0,11.7,13.53,47.59359,-54.27349
2023-12-31 19:14:00+00:00,306.0,9.78,308.0,11.33,13.05,47.59359,-54.27349
2023-12-31 19:24:00+00:00,311.0,8.76,313.0,10.07,13.05,47.59359,-54.27349
2023-12-31 19:34:00+00:00,317.0,9.6,321.0,10.78,13.05,47.59359,-54.27349
2023-12-31 19:44:00+00:00,314.0,8.61,309.0,9.75,13.05,47.59359,-54.27349
2023-12-31 19:54:00+00:00,316.0,9.62,310.0,10.79,13.05,47.59359,-54.27349
2023-12-31 20:04:00+00:00,316.0,5.94,310.0,7.01,13.05,47.59359,-54.27349
2023-12-31 20:14:00+00:00,295.0,5.0,306.0,7.66,12.57,47.59359,-54.27349
2023-12-31 20:24:00+00:00,313.0,7.49,302.0,9.75,12.57,47.59359,-54.27349
2023-12-31 20:34:00+00:00,311.0,9.95,307.0,12.03,12.57,47.59359,-54.27349
2023-12-31 20:44:00+00:00,308.0,9.23,307.0,10.47,12.57,47.59359,-54.27349
2023-12-31 20:54:00+00:00,318.0,9.51,325.0,12.63,12.57,47.59359,-54.27349
2023-12-31 21:04:00+00:00,318.0,9.76,322.0,11.64,12.57,47.59359,-54.27349
2023-12-31 21:14:00+00:00,313.0,11.35,309.0,13.34,12.41,47.59359,-54.27349
2023-12-31 21:24:00+00:00,319.0,10.44,320.0,12.8,12.41,47.59359,-54.27349
2023-12-31 21:34:00+00:00,318.0,10.33,322.0,11.86,12.41,47.59359,-54.27349
2023-12-31 21:44:00+00:00,321.0,13.26,325.0,15.07,12.41,47.59359,-54.27349
2023-12-31 21:54:00+00:00,315.0,12.31,311.0,14.71,12.41,47.59359,-54.27349
2023-12-31 22:04:00+00:00,319.0,11.72,319.0,13.93,12.41,47.59359,-54.27349
2023-12-31 22:14:00+00:00,321.0,10.67,321.0,12.52,12.41,47.59359,-54.27349
2023-12-31 22:24:00+00:00,320.0,9.35,319.0,11.02,12.41,47.59359,-54.27349
2023-12-31 22:34:00+00:00,311.0,9.4,310.0,10.78,12.41,47.59359,-54.27349
2023-12-31 22:44:00+00:00,310.0,8.01,307.0,9.78,12.41,47.59359,-54.27349
2023-12-31 22:54:00+00:00,310.0,9.94,306.0,12.4,12.41,47.59359,-54.27349
2023-12-31 23:04:00+00:00,302.0,8.28,309.0,10.17,12.41,47.59359,-54.27349
2023-12-31 23:14:00+00:00,296.0,10.03,297.0,11.47,12.33,47.59359,-54.27349
2023-12-31 23:24:00+00:00,301.0,8.88,299.0,10.0,12.33,47.59359,-54.27349
2023-12-31 23:34:00+00:00,303.0,8.8,305.0,9.88,12.33,47.59359,-54.27349
2023-12-31 23:44:00+00:00,305.0,9.56,304.0,11.13,12.33,47.59359,-54.27349
2023-12-31 23:54:00+00:00,308.0,9.75,313.0,11.73,12.33,47.59359,-54.27349
